Powrót do katalogu

SL-12 R/B(2)

AktywnyGEO
NORAD 23656·ROCKET BODY·🇷🇺 Russia

Wystrzelony Aug 30, 1995 z Baikonur Cosmodrome

Loading…

TLE

ŚwieżeSource: Space-Track

Epoka: Sep 14, 2026, 14:13 UTC

1 23656U 95045D   26257.59253427 -.00000207  00000-0  00000-0 0  9994
2 23656  14.3957 352.3348 0017133  58.3437 310.4479  1.00189443113560

Śledź SL-12 R/B(2) w czasie rzeczywistym z AllMySat

Download on the App Store